FW1504 Weather Reports


time (UTC)temp
C
wind
direction
speed
KPH
gust
KPH
rain 1hr
cm
rain 24hr
cm
rain mn
cm
humidity
%
barometer
mb
20260504214554 27 180 11.3 27.4 0.00 0.00 0.00 57 1002.4
20260504213053 27 175 8.0 22.5 0.00 0.00 0.00 57 1002.6
20260504211551 27 191 6.4 16.1 0.00 0.00 0.00 58 1003.0
20260504210045 27 171 8.0 16.1 0.00 0.00 0.00 55 1003.4
20260504204543 27 172 4.8 12.9 0.00 0.00 0.00 56 1003.7
20260504203042 26 167 6.4 19.3 0.00 0.00 0.00 56 1003.9
20260504201540 27 179 8.0 19.3 0.00 0.00 0.00 54 1004.0
20260504200048 27 360 8.0 22.5 0.00 0.00 0.00 54 1004.2
20260504194541 27 169 9.7 25.7 0.00 0.00 0.00 54 1004.5
20260504193034 27 160 8.0 24.1 0.00 0.00 0.00 54 1004.7
20260504191548 27 176 4.8 24.1 0.00 0.00 0.00 56 1004.9
20260504190032 27 160 11.3 17.7 0.00 0.00 0.00 53 1004.9
20260504184531 26 360 6.4 22.5 0.00 0.00 0.00 55 1005.3
20260504183038 26 360 6.4 27.4 0.00 0.00 0.00 57 1005.6
20260504181526 26 360 6.4 19.3 0.00 0.00 0.00 55 1005.9
20260504180023 26 180 8.0 20.9 0.00 0.00 0.00 54 1006.1
20260504174521 26 165 6.4 19.3 0.00 0.00 0.00 56 1006.2
20260504173016 25 176 6.4 17.7 0.00 0.00 0.00 56 1006.5
20260504171516 25 360 8.0 22.5 0.00 0.00 0.00 54 1006.5
20260504081553 17 360 4.8 9.7 0.00 0.00 0.00 60 1009.8
20260504044532 19 360 4.8 14.5 0.00 0.00 0.00 50 1011.8
20260504043026 20 360 6.4 14.5 0.00 0.00 0.00 50 1011.8
20260504041524 20 360 4.8 16.1 0.00 0.00 0.00 50 1012.1
20260504040023 20 360 3.2 12.9 0.00 0.00 0.00 50 1012.4
20260504034533 20 360 4.8 20.9 0.00 0.00 0.00 48 1012.4
20260504033022 20 360 4.8 17.7 0.00 0.00 0.00 47 1012.4
20260504031522 21 360 4.8 16.1 0.00 0.00 0.00 46 1012.3
20260504030037 21 360 6.4 16.1 0.00 0.00 0.00 45 1012.2
20260504024520 21 360 4.8 12.9 0.00 0.00 0.00 44 1012.2
20260504023020 21 360 4.8 14.5 0.00 0.00 0.00 44 1012.2
20260504021518 22 360 4.8 14.5 0.00 0.00 0.00 43 1011.9
20260504020018 22 360 4.8 14.5 0.00 0.00 0.00 42 1011.8
20260504014532 22 360 4.8 16.1 0.00 0.00 0.00 42 1011.8
20260504013017 23 360 4.8 12.9 0.00 0.00 0.00 40 1011.9
20260504011516 23 360 4.8 14.5 0.00 0.00 0.00 39 1011.8
20260504010020 24 360 6.4 12.9 0.00 0.00 0.00 37 1011.9
20260504004515 24 360 4.8 14.5 0.00 0.00 0.00 36 1012.1
20260504003025 25 360 3.2 12.9 0.00 0.00 0.00 35 1012.0
20260504001512 25 360 6.4 14.5 0.00 0.00 0.00 34 1012.1
20260504000011 25 360 4.8 17.7 0.00 0.00 0.00 33 1012.2
20260503234527 26 360 8.0 16.1 0.00 0.00 0.00 33 1012.3
20260503233011 26 360 4.8 20.9 0.00 0.00 0.00 34 1012.4
20260503231512 26 360 3.2 14.5 0.00 0.00 0.00 33 1012.3
20260503230007 26 360 3.2 12.9 0.00 0.00 0.00 34 1012.5
20260503224505 27 360 4.8 17.7 0.00 0.00 0.00 32 1012.6
20260503223004 27 175 8.0 16.1 0.00 0.00 0.00 33 1012.7
20260503221503 27 219 6.4 14.5 0.00 0.00 0.00 30 1013.0
20260503220101 27 360 6.4 16.1 0.00 0.00 0.00 31 1012.9